EW8712 Weather Reports


Display with metric or nautical units.
time (UTC)temp
F
wind
direction
speed
MPH
gust
MPH
rain 1hr
in
rain 24hr
in
rain mn
in
humidity
%
barometer
mb
20200330070146 0 0.0 0.0 0.00 0.00 0.00 1038.1
20200330064612 0 0.0 0.0 0.00 0.00 0.00 1038.0
20200330060130 0 0.0 0.0 0.00 0.00 0.00 1038.3
20200330054834 0 0.0 0.0 0.00 0.00 0.00 1038.2
20200330053138 0 0.0 0.0 0.00 0.00 0.00 1038.3
20200330050140 0 0.0 0.0 0.00 0.00 0.00 1038.4
20200330044634 36 56 0.0 2.0 0.00 0.00 0.00 84 1038.2
20200330043102 32 71 0.0 4.0 0.00 0.00 0.00 84 1038.4
20200330040026 32 12 0.0 4.0 0.00 0.00 0.00 83 1038.7
20200330034530 33 31 0.0 5.0 0.00 0.00 0.00 82 1038.7
20200330033034 34 295 1.0 7.0 0.00 0.00 0.00 81 1038.8
20200330030045 35 354 3.0 12.0 0.00 0.00 0.00 79 1038.8
20200330024527 36 302 2.0 9.0 0.00 0.00 0.00 79 1038.9
20200330023018 36 318 1.0 8.0 0.00 0.00 0.00 80 1039.1
20200330020035 35 18 1.0 6.0 0.00 0.00 0.00 81 1039.5
20200330014534 35 269 1.0 5.0 0.00 0.00 0.00 82 1039.8
20200330013003 35 64 1.0 6.0 0.00 0.00 0.00 81 1039.9
20200330010121 34 52 0.0 3.0 0.00 0.00 0.00 81 1040.1
20200330004617 34 325 0.0 3.0 0.00 0.00 0.00 81 1040.3
20200330003130 33 304 0.0 2.0 0.00 0.00 0.00 81 1040.3
20200330000243 33 347 0.0 1.0 0.00 0.00 0.00 80 1040.5
20200329234649 33 11 0.0 2.0 0.00 0.00 0.00 78 1040.3
20200329233326 33 39 0.0 5.0 0.00 0.00 0.00 79 1040.4
20200329230123 33 352 0.0 2.0 0.00 0.00 0.00 78 1040.5
20200329224615 34 341 0.0 3.0 0.00 0.00 0.00 77 1040.5
20200329223122 34 79 0.0 2.0 0.00 0.00 0.00 75 1040.5
20200329220101 35 41 0.0 5.0 0.00 0.00 0.00 73 1040.4
20200329214631 35 309 1.0 5.0 0.00 0.00 0.00 72 1040.5
20200329213117 36 157 0.0 8.0 0.00 0.00 0.00 71 1040.4
20200329210152 37 330 3.0 14.0 0.00 0.00 0.00 67 1040.2
20200329204649 37 331 4.0 17.0 0.00 0.00 0.00 65 1040.1
20200329203120 37 231 1.0 9.0 0.00 0.00 0.00 64 1040.2
20200329200101 37 355 1.0 6.0 0.00 0.00 0.00 59 1039.8
20200329194645 38 307 1.0 6.0 0.00 0.00 0.00 57 1039.7
20200329193101 38 315 2.0 10.0 0.00 0.00 0.00 56 1039.5
20200329190046 39 347 3.0 12.0 0.00 0.00 0.00 53 1039.2
20200329184611 40 52 2.0 11.0 0.00 0.00 0.00 52 1038.9
20200329183158 41 79 2.0 11.0 0.00 0.00 0.00 50 1038.7
20200329180106 43 54 2.0 11.0 0.00 0.00 0.00 46 1038.6
20200329174616 43 340 6.0 15.0 0.00 0.00 0.00 45 1038.4
20200329173105 44 305 5.0 19.0 0.00 0.00 0.00 45 1038.3
20200329170110 45 202 7.0 17.0 0.00 0.00 0.00 40 1038.2
20200329164600 46 300 1.0 16.0 0.00 0.00 0.00 43 1038.0
20200329163119 46 290 5.0 17.0 0.00 0.00 0.00 41 1038.1
20200329160118 46 355 6.0 13.0 0.00 0.00 0.00 42 1037.9
20200329154544 46 134 4.0 19.0 0.00 0.00 0.00 44 1037.9
20200329153042 47 1 5.0 14.0 0.00 0.00 0.00 42 1037.7
20200329150033 47 20 5.0 15.0 0.00 0.00 0.00 44 1037.9
20200329144555 47 152 3.0 19.0 0.00 0.00 0.00 43 1037.9
20200329143037 48 313 6.0 20.0 0.00 0.00 0.00 44 1037.9
20200329140035 47 207 5.0 13.0 0.00 0.00 0.00 43 1038.1
20200329134521 47 351 4.0 16.0 0.00 0.00 0.00 45 1038.2
20200329133033 47 61 4.0 15.0 0.00 0.00 0.00 45 1038.2
20200329130023 47 110 5.0 26.0 0.00 0.00 0.00 43 1038.2
20200329124609 46 51 4.0 18.0 0.00 0.00 0.00 45 1038.5
20200329123022 47 108 3.0 15.0 0.00 0.00 0.00 47 1038.5
20200329120023 45 126 4.0 17.0 0.00 0.00 0.00 47 1038.8
20200329114508 45 129 4.0 16.0 0.00 0.00 0.00 46 1038.8
20200329113011 44 315 4.0 19.0 0.00 0.00 0.00 49 1039.0
20200329110030 43 7 6.0 19.0 0.00 0.00 0.00 52 1039.0
20200329104508 43 317 5.0 18.0 0.00 0.00 0.00 51 1039.1
20200329103004 44 19 7.0 19.0 0.00 0.00 0.00 54 1038.7
20200329100240 41 45 7.0 16.0 0.00 0.00 0.00 61 1038.9
20200329094625 40 350 5.0 19.0 0.00 0.00 0.00 65 1038.9
20200329093202 39 8 5.0 13.0 0.00 0.00 0.00 66 1038.9
20200329090242 40 21 6.0 13.0 0.00 0.00 0.00 65 1038.7
20200329084638 39 340 4.0 11.0 0.00 0.00 0.00 66 1038.8
20200329083226 39 205 6.0 18.0 0.00 0.00 0.00 66 1038.7
20200329081625 39 360 5.0 16.0 0.00 0.00 0.00 68 1038.7
20200329080231 38 308 4.0 15.0 0.00 0.00 0.00 70 1038.5
20200329074708 38 316 5.0 12.0 0.00 0.00 0.00 71 1038.4
20200329073108 37 22 2.0 10.0 0.00 0.00 0.00 73 1038.4
20200329071646 36 334 3.0 11.0 0.00 0.00 0.00 75 1038.3